GEFSSE_con_cape1000_246.txt.gz
Probability
3 10 61 68 61 68 68 74 81 74 81 74 74 71 71 77 74 74 81 74 68 65 58 71 61 58 55 52 58 55 61 58 52 52 48 52 48 55 61 58 48 29 61
3 19 65 68 74 74 77 81 71 77 77 87 77 77 71 74 71 77 81 65 68 52 65 68 61 58 55 52 55 55 58 61 58 45 45 45 45 52 52 39 55 39 58
6 23 35 74 77 74 81 81 71 71 77 77 74 74 81 81 84 77 68 74 61 58 65 68 58 58 52 52 58 58 52 48 48 45 45 23 26 35 48 45 52 52 52
10 23 42 71 74 77 77 81 77 68 77 77 77 81 77 74 74 71 65 74 65 61 65 68 65 61 55 48 55 52 52 48 48 42 16 3 13 35 52 48 58 45 48
10 26 45 77 71 68 71 77 77 74 77 77 74 81 74 77 71 65 74 65 65 65 65 58 58 58 55 55 55 45 42 45 45 19 6 6 19 35 45 45 45 45 45
16 13 35 71 71 68 68 81 81 77 77 77 74 77 74 74 68 71 65 65 55 52 58 55 45 48 45 48 52 45 42 32 19 3 3 3 16 45 45 48 42 42 45
6 19 26 65 74 74 74 74 81 81 77 77 74 74 74 68 71 65 61 55 52 52 48 58 55 42 42 48 52 48 35 35 10 3 3 10 23 55 48 52 52 45 42
10 19 39 68 77 68 74 77 77 77 68 81 71 71 68 68 71 68 52 55 52 48 52 55 48 39 52 52 48 45 45 29 6 3 13 26 32 48 32 42 48 42 45
6 23 39 39 52 68 77 71 84 77 68 74 74 71 68 68 68 61 52 55 52 52 48 45 45 32 45 48 42 42 35 35 13 16 6 16 29 39 42 45 52 42 48
6 16 29 35 35 32 39 71 77 74 65 65 65 61 55 61 58 55 55 55 45 55 48 45 32 32 35 32 32 29 26 26 6 3 13 23 39 35 39 39 45 42 45
3 10 13 10 29 23 19 23 45 55 61 61 58 58 61 48 26 32 32 42 45 45 48 42 32 32 29 32 32 32 23 10 3 13 13 23 45 32 39 39 42 48 42
3 3 13 13 23 19 10 35 35 19 45 61 68 55 52 65 42 23 35 42 35 35 39 39 32 29 16 26 26 26 13 6 10 3 29 45 52 45 39 39 42 39 39
10 3 10 19 29 23 29 32 39 39 48 52 58 65 71 55 45 32 39 42 45 32 32 35 26 19 19 13 23 13 10 3 10 3 26 45 55 45 45 48 45 39 35
13 10 19 29 29 35 45 39 48 45 52 48 61 61 55 61 52 39 39 29 32 35 32 29 42 26 23 29 26 16 13 19 26 23 42 35 45 42 39 39 45 35 39
16 19 32 32 52 55 61 55 45 48 48 52 61 58 61 48 39 39 55 61 29 39 42 45 48 39 48 29 29 26 19 26 26 23 35 29 35 48 42 39 39 35 32
16 26 35 39 52 71 68 71 55 52 61 42 45 52 55 55 52 42 52 74 48 42 39 52 52 52 48 45 29 16 16 19 26 29 29 29 26 35 39 35 35 35 29
32 39 45 48 52 61 55 45 42 42 39 45 52 52 61 61 65 61 58 58 42 45 52 55 48 52 35 26 29 32 32 29 23 26 23 29 39 29 35 35 35 35 35
39 48 55 29 52 77 87 74 42 42 45 45 42 48 52 55 52 68 58 52 58 48 45 52 45 45 48 39 35 35 35 42 35 39 26 35 35 29 26 32 32 32 39
48 55 61 52 68 71 74 74 52 65 55 42 45 45 52 48 45 61 61 68 65 48 39 32 48 48 48 45 35 45 35 39 39 32 26 29 26 32 29 29 29 26 23
45 68 74 81 84 74 68 74 61 58 48 48 45 58 52 58 55 61 58 68 48 52 65 52 52 58 45 45 16 29 35 32 29 29 32 29 29 29 26 26 29 23 26
42 71 84 77 81 81 74 55 55 42 45 48 55 61 58 58 48 58 52 65 68 55 65 58 48 35 39 42 39 32 29 16 23 35 29 29 26 29 26 26 29 23 23
61 84 84 81 81 74 74 68 68 55 55 55 55 68 61 58 55 42 65 65 65 74 71 61 58 45 32 48 45 45 39 26 26 19 32 32 23 23 23 23 19 19 19
61 74 71 87 84 74 71 61 58 61 58 61 61 58 61 61 58 52 61 65 68 55 68 68 61 55 45 42 29 42 23 29 26 26 29 29 26 16 16 16 16 19 19
68 81 87 94 90 84 84 58 48 58 48 55 58 55 58 58 55 52 48 58 61 52 68 52 45 55 52 42 48 52 48 45 29 23 23 13 16 16 19 10 10 10 13
48 71 81 94 87 84 81 71 71 58 52 58 55 71 65 55 52 45 42 45 48 52 55 55 52 45 52 42 35 35 29 35 26 19 13 13 13 10 16 10 10 10 6
55 65 68 90 87 84 77 74 74 71 65 61 65 65 65 61 58 48 45 55 45 45 58 52 55 42 52 42 55 42 29 26 23 13 10 26 19 10 13 16 16 13 16

GEFSSE_con_cape1000_252.txt.gz
Probability
10 19 61 71 65 65 65 65 61 55 52 58 68 65 61 65 58 52 55 65 71 61 58 58 55 48 45 48 42 42 42 48 55 48 52 55 61 55 52 52 48 35 65
10 19 65 77 74 74 65 61 65 68 61 68 68 65 65 65 65 58 58 58 65 65 52 52 52 55 48 52 52 52 52 52 45 52 45 42 55 65 58 52 48 39 55
16 19 48 77 77 68 68 65 71 71 74 68 71 71 68 68 65 61 61 58 68 61 61 48 48 58 58 52 55 55 48 45 48 52 45 19 23 52 58 55 58 52 48
16 19 39 81 71 68 74 65 68 68 68 65 65 71 74 68 68 71 65 61 61 65 58 48 52 52 48 65 55 45 39 45 52 45 26 16 16 35 52 45 35 45 48
23 29 55 77 71 71 68 68 65 68 65 65 74 74 71 71 74 71 61 68 65 65 65 58 48 45 39 52 55 48 45 48 52 35 16 10 19 39 48 35 42 39 42
29 23 48 77 74 68 68 71 71 68 65 68 65 74 71 65 68 71 68 65 68 61 65 52 48 39 42 48 45 42 42 45 42 10 10 10 26 42 52 45 29 35 32
19 29 35 81 71 68 65 74 71 68 61 65 65 74 74 68 61 65 58 58 61 58 55 55 39 42 52 45 39 42 45 58 16 0 13 16 35 55 45 45 32 26 35
16 26 42 81 74 68 68 74 74 71 68 61 65 68 65 65 58 55 58 61 61 58 55 55 48 45 39 42 39 26 45 55 6 6 13 16 39 48 45 48 42 39 32
23 19 26 42 58 74 77 77 77 68 65 65 65 68 68 71 58 55 55 58 58 61 58 48 45 45 32 32 29 32 39 58 23 13 3 16 45 48 39 45 39 26 26
16 23 29 35 45 39 45 65 71 71 58 58 58 61 61 68 68 65 58 55 52 55 52 52 48 39 39 45 35 32 52 42 13 3 6 19 61 42 39 42 32 26 26
13 16 23 23 39 32 16 32 58 58 61 52 58 74 61 58 45 45 42 52 45 48 45 45 48 52 52 48 52 52 39 13 6 3 3 19 61 52 45 42 32 29 29
16 16 29 32 29 29 29 58 52 39 65 71 65 65 65 55 58 32 48 58 48 52 52 48 58 45 48 26 23 45 16 6 6 6 13 58 65 48 39 39 39 23 29
13 16 23 32 42 39 58 58 58 61 74 71 65 65 65 55 48 42 45 42 48 45 42 45 45 35 26 23 29 26 6 3 3 3 23 65 55 48 45 45 45 29 29
16 16 29 45 58 77 74 65 68 68 68 65 74 71 65 65 58 55 58 55 48 55 61 58 65 52 39 39 29 16 19 19 16 13 29 52 55 42 42 39 35 32 29
35 29 45 68 74 87 87 81 65 74 58 65 77 68 58 61 65 58 65 68 61 55 65 65 55 65 65 45 39 29 29 23 16 23 19 35 35 35 32 32 32 35 32
29 45 52 61 74 81 84 81 81 61 77 71 68 68 61 61 71 71 61 65 61 71 65 68 61 58 61 58 48 45 39 42 39 39 26 26 39 39 35 39 32 32 39
52 55 61 65 74 84 77 77 71 68 65 65 74 81 74 65 68 68 65 55 65 71 68 65 65 68 58 58 52 55 55 55 42 42 39 23 23 26 39 39 39 35 35
58 74 71 48 74 81 84 84 81 65 68 68 74 77 71 71 77 81 81 71 74 74 68 65 61 61 65 61 58 58 58 61 52 52 32 26 19 13 16 32 32 35 32
74 77 77 81 84 84 84 84 84 81 81 77 74 74 71 68 65 77 84 81 77 77 71 52 58 58 61 58 58 58 61 58 52 39 35 29 23 26 19 16 39 39 32
74 81 84 84 87 87 84 87 87 77 77 77 77 77 65 65 68 68 71 77 71 77 77 74 55 65 58 61 23 35 45 42 42 39 29 29 29 26 23 16 19 19 29
74 84 90 90 87 90 90 87 87 84 81 77 77 65 58 58 61 74 74 71 68 77 71 58 58 55 58 52 55 45 42 35 32 35 29 26 23 23 19 26 26 16 19
84 90 90 90 94 90 94 87 87 87 84 71 74 68 65 65 55 52 71 71 71 77 68 58 61 68 52 48 52 42 26 32 32 26 32 29 19 19 19 19 19 23 23
77 90 77 94 94 94 90 87 87 84 81 74 71 71 71 68 61 58 65 68 74 71 68 68 65 52 55 52 52 52 35 26 29 32 32 26 23 23 13 19 16 16 19
77 87 97 97 97 94 90 90 84 81 71 74 81 77 74 68 65 61 61 71 74 65 68 58 68 65 58 52 58 55 52 45 26 29 29 32 26 19 13 6 6 19 19
77 84 97 100 100 100 97 90 87 81 77 77 74 74 74 74 61 61 65 68 74 71 71 68 61 65 65 65 61 58 52 35 26 23 23 26 23 29 23 19 16 13 13
74 84 90 97 97 94 94 94 87 87 87 77 81 77 74 74 74 68 68 77 77 71 71 71 71 68 77 65 68 68 55 42 35 29 19 23 23 23 26 29 23 19 13

GEFSSE_con_cape1000_258.txt.gz
Probability
13 32 68 65 65 68 68 61 68 61 61 61 61 58 58 58 71 77 77 71 68 65 61 61 55 61 68 68 65 58 52 52 58 65 61 58 58 68 58 58 45 39 58
19 35 68 74 71 71 68 65 68 68 58 65 61 61 61 65 71 71 71 71 74 68 61 55 61 65 58 65 61 65 61 65 61 65 52 52 65 61 61 55 45 39 58
23 32 55 74 65 65 71 71 68 65 65 71 71 68 68 65 71 71 77 71 74 71 61 58 55 58 55 61 55 55 55 65 65 61 52 26 35 61 68 55 48 52 45
6 26 42 77 68 71 71 71 68 68 68 74 71 77 71 68 68 71 71 74 68 61 61 58 55 48 55 55 55 55 58 55 55 42 10 16 23 52 68 65 52 48 45
13 29 58 74 71 71 71 71 71 71 74 71 71 74 77 74 74 74 74 71 61 58 65 48 52 58 55 58 58 61 55 48 45 16 6 3 6 52 52 52 42 45 39
16 26 61 77 74 74 74 71 74 74 74 68 68 68 71 71 68 77 71 74 61 58 55 48 52 52 58 52 48 55 48 45 26 3 0 0 10 45 48 55 42 42 42
10 26 58 77 74 77 84 81 77 74 74 68 65 65 71 74 68 74 68 68 58 52 52 52 42 42 52 55 42 45 52 35 10 0 0 0 3 55 48 45 42 35 39
10 26 55 68 71 74 77 74 77 71 71 68 74 74 71 71 68 74 68 61 55 58 52 52 45 42 39 45 52 58 58 39 3 0 0 0 23 61 48 42 35 42 39
13 23 39 52 65 77 77 77 74 71 77 74 68 68 71 68 71 68 65 65 61 48 52 52 55 42 35 48 52 58 45 42 6 0 0 0 42 52 45 42 35 35 35
16 19 26 32 39 39 55 71 74 77 74 77 71 68 68 71 68 74 68 71 58 58 52 55 48 42 48 42 48 48 45 26 6 0 0 6 58 48 45 45 39 29 32
13 16 19 16 13 16 19 48 55 71 77 71 65 71 61 29 26 42 45 68 68 61 55 61 58 58 58 45 55 48 32 0 0 0 0 19 55 48 45 39 39 32 39
6 3 10 13 13 10 16 19 26 26 23 26 23 35 23 6 6 23 42 68 68 65 58 68 68 61 42 16 13 32 10 0 0 0 0 45 52 52 45 45 35 35 35
0 0 3 6 6 3 6 10 10 13 10 10 10 13 6 10 3 6 10 26 42 48 29 32 35 23 16 3 3 0 0 3 0 0 6 42 52 58 55 42 39 32 35
0 0 3 6 6 3 0 6 6 6 6 6 10 13 6 6 6 6 3 3 0 0 6 10 6 13 3 0 0 0 0 3 0 0 6 45 52 48 55 48 42 35 32
3 6 3 6 3 6 3 3 13 10 10 6 13 13 6 10 0 0 0 3 10 6 3 3 3 3 3 3 0 0 3 3 6 3 6 29 39 39 35 42 45 39 35
6 6 10 16 13 16 13 10 13 10 6 10 19 19 16 10 13 10 3 3 3 6 3 0 0 3 0 0 6 10 6 3 6 6 3 13 32 45 48 39 42 42 42
3 16 26 32 23 10 10 10 13 13 10 16 16 19 23 16 16 13 13 13 10 10 3 3 6 6 10 10 6 10 6 6 6 6 3 3 13 29 35 35 35 45 45
10 19 26 29 16 16 10 13 19 13 10 16 16 23 16 19 16 13 13 13 10 10 3 6 6 6 6 6 6 6 6 6 6 6 6 3 6 10 19 32 39 39 39
10 16 23 23 16 23 23 19 16 23 23 19 16 13 10 23 23 23 23 16 10 10 16 13 10 10 6 6 10 6 6 6 0 6 6 6 6 6 6 13 35 32 32
16 13 19 23 16 13 26 26 19 16 16 23 19 19 23 23 19 23 26 23 13 19 16 13 16 6 6 10 13 10 6 0 0 3 3 0 0 3 3 3 13 16 23
19 23 26 19 23 23 26 26 16 13 10 23 23 23 23 29 32 26 32 19 10 13 13 13 13 13 13 13 10 6 6 0 0 0 0 0 0 0 0 0 0 0 0
19 26 23 26 32 32 32 19 19 13 19 19 19 26 23 23 32 35 29 13 16 16 16 16 16 13 10 6 6 6 6 0 0 3 0 0 0 0 0 0 0 0 0
23 26 29 29 35 29 29 23 23 19 19 23 23 26 29 26 35 29 23 13 19 13 13 13 23 16 13 13 10 6 6 3 0 0 0 0 0 0 0 0 0 3 0
32 29 29 29 29 32 32 29 19 19 16 16 19 29 26 32 29 26 23 23 16 16 19 23 23 16 13 13 13 10 3 0 3 0 0 0 0 0 0 0 3 0 0
35 39 32 35 32 32 32 26 16 16 23 16 19 23 16 26 26 23 26 26 23 19 19 19 16 23 16 13 6 6 0 0 0 0 0 0 0 0 0 0 0 0 0
45 45 48 42 35 42 35 32 23 23 29 29 23 19 19 16 23 16 19 19 16 19 19 19 13 16 16 16 6 3 3 0 0 0 0 0 0 0 0 0 0 0 0

GEFSSE_con_cape1000_264.txt.gz
Probability
0 10 48 58 52 58 61 65 61 65 65 61 68 65 68 68 74 68 68 65 61 58 58 68 61 58 55 52 48 45 45 52 58 52 48 58 45 42 45 45 42 35 55
3 23 61 65 58 61 58 71 65 65 65 65 65 68 65 68 68 74 74 81 71 55 58 61 65 52 52 55 52 55 52 55 58 58 58 55 52 55 58 48 42 39 52
13 19 45 61 61 58 58 61 68 65 58 61 68 71 74 65 65 65 74 77 68 68 61 61 55 52 55 52 48 52 52 55 61 55 52 32 32 58 61 55 52 52 55
10 19 29 61 65 61 65 61 65 58 55 61 58 68 71 61 61 61 74 58 65 65 61 61 55 55 55 61 58 58 61 58 45 42 29 23 26 42 45 55 52 52 55
3 19 32 68 61 68 74 74 71 58 55 55 58 58 65 65 65 68 68 65 61 55 48 52 48 48 48 52 55 55 55 52 42 19 10 10 26 52 48 45 45 55 39
6 19 42 68 68 71 71 71 68 58 58 65 61 61 68 74 71 65 58 58 61 55 55 48 55 55 48 52 52 55 45 35 26 3 6 3 13 52 45 42 39 32 35
6 19 35 68 68 71 68 77 68 65 65 68 68 65 65 68 74 61 61 58 61 61 48 42 42 45 52 48 45 45 48 23 10 0 3 3 19 52 45 45 42 32 29
10 26 32 68 71 68 68 71 68 71 68 71 68 68 65 68 74 65 65 65 61 52 48 42 35 35 39 45 42 45 39 23 6 0 0 3 26 55 45 42 35 32 23
10 23 26 29 42 65 65 68 71 71 68 71 71 68 71 65 65 65 65 65 55 55 45 42 39 32 35 42 45 35 32 26 6 0 0 6 26 45 45 39 35 35 32
6 13 16 16 16 26 35 65 68 74 71 68 71 68 68 58 52 58 58 61 61 52 52 45 42 35 39 48 45 42 39 32 6 0 0 10 29 48 35 39 32 29 26
6 6 3 6 10 10 16 42 48 71 74 61 55 65 45 26 23 32 48 65 58 52 52 48 52 39 45 45 42 52 32 6 6 0 0 16 35 45 35 39 42 35 26
3 3 0 0 0 3 13 13 16 26 29 29 19 19 19 13 6 26 32 55 61 58 55 55 58 45 23 13 23 23 3 3 0 0 0 19 35 29 32 45 39 35 26
0 3 0 0 0 3 3 6 13 10 6 6 13 16 10 0 0 10 6 16 32 32 23 29 26 19 16 6 3 10 3 0 0 0 6 23 35 35 32 35 29 39 35
0 3 3 3 0 0 0 3 6 0 0 3 3 0 3 0 0 0 0 0 3 13 13 6 10 13 6 6 6 10 6 0 0 0 6 16 35 48 39 35 29 32 42
0 0 3 3 3 0 0 0 6 0 0 6 3 0 0 0 0 0 0 0 0 3 3 3 3 6 3 6 13 13 10 6 3 3 6 16 42 39 42 45 45 35 29
0 0 0 3 3 0 0 0 0 0 0 0 0 3 0 0 0 0 0 0 0 6 6 6 3 6 13 13 10 10 10 6 0 3 3 10 29 35 39 35 35 35 39
0 0 3 3 0 0 0 0 0 3 0 0 0 3 6 0 0 0 0 0 0 3 3 3 6 10 10 10 10 6 10 3 6 6 3 3 19 32 35 39 39 39 35
0 0 0 0 0 0 0 0 3 3 0 3 0 0 6 10 3 0 3 0 3 3 6 6 3 3 3 3 3 6 3 3 3 3 3 3 6 13 19 32 42 42 32
0 0 0 3 0 0 0 3 6 6 6 6 6 0 6 19 10 10 3 0 3 3 10 10 3 3 3 6 3 3 3 0 3 3 3 3 3 6 13 10 23 32 29
3 0 3 3 3 0 3 3 3 10 6 3 10 10 6 13 16 6 0 0 10 10 13 10 10 10 10 10 6 6 3 3 0 0 0 0 0 0 0 3 10 10 13
0 3 3 3 0 0 3 3 6 6 3 6 10 19 19 16 16 6 6 3 10 6 10 10 13 13 10 10 10 3 0 0 0 0 0 0 0 0 0 3 3 3 6
10 3 3 0 0 3 3 6 10 6 3 6 13 10 16 16 16 16 13 13 10 3 13 13 13 10 10 10 10 6 3 0 0 0 0 0 0 0 3 0 3 3 3
10 10 3 0 6 6 10 6 10 10 6 10 13 13 13 6 13 13 13 10 13 10 10 10 10 10 10 6 3 6 3 3 0 0 0 0 0 0 3 6 6 3 3
0 6 3 3 10 6 10 10 13 10 6 6 6 6 13 13 13 10 13 6 6 6 6 10 6 6 6 6 3 0 0 0 0 0 0 0 0 0 0 0 6 6 3
6 6 3 3 10 6 10 10 13 6 6 6 3 3 10 6 10 16 13 16 10 10 10 10 10 6 3 3 3 3 0 0 0 0 0 0 0 0 0 0 0 3 3
6 6 6 6 10 10 13 13 10 6 6 6 6 3 6 6 3 3 10 16 13 13 13 10 10 6 6 6 0 0 0 0 0 0 0 0 0 0 0 3 0 0 3